Location: Observatoire de l'Aigle
(47.0607°N, 71.3152°W)
Time: 11:47:17
(UTC-05:00)

Amateur Radio Satellites - All Passes

Search period start: 23 November 2017 11:17
Search period end: 24 November 2017 11:17
Location: Observatoire de l'Aigle, 47.0607°N, 71.3152°W

Satellite Date Start Highest point End Downlink Frequencies (MHz)
Time Altitude Azimuth
AIST 2D 23 Nov 11:20:21 11:21:54 13° 270° (W) 11:23:29 435.315
AO-7 23 Nov 11:21:01 11:24:46 14° 35° (NE) 11:28:32 .
POLYITAN 1 23 Nov 11:25:54 11:29:51 37° 262° (W) 11:33:49 437.675
BUGSAT 1 23 Nov 11:42:04 11:46:14 67° 74° (ENE) 11:50:21 437.445
FALCONSAT 3 23 Nov 11:42:25 11:43:40 11° 191° (SSW) 11:44:54 435.103
LO-87 23 Nov 11:42:40 11:45:57 36° 290° (WNW) 11:49:12 145.935 - 145.965
ESTCUBE 1 23 Nov 11:45:56 11:50:26 64° 288° (WNW) 11:54:55 437.505/2401.250
O/OREOS (USA 219) 23 Nov 11:48:38 11:52:03 21° 102° (ESE) 11:55:29 437.305
QB50P2 23 Nov 11:50:27 11:53:37 20° 267° (W) 11:56:47 145.880/145.840
VELOX 1 23 Nov 11:55:54 11:59:46 28° 95° (E) 12:03:37 145.980
Oscar 19 23 Nov 12:04:37 12:09:39 65° 72° (ENE) 12:14:46 437.125/150
BEESAT 2 23 Nov 12:06:53 12:10:10 24° 245° (WSW) 12:13:25 435.950
SPROUT 23 Nov 12:34:05 12:38:21 75° 285° (WNW) 12:42:33 437.525
DX 1 23 Nov 12:34:14 12:37:09 17° 91° (E) 12:40:03 434.975-435.025
M-CUBED/EXP-1 PRIME 23 Nov 12:37:27 12:40:45 31° 61° (ENE) 12:44:18 437.505
AO-91 23 Nov 12:41:24 12:46:46 68° 259° (WSW) 12:52:07 145.960
AO-85 23 Nov 12:46:14 12:50:23 31° 243° (WSW) 12:54:47 145.980
50 SAT 23 Nov 12:47:17 12:49:47 20° 95° (E) 12:52:16 437.505
Gurwin Techsat 1B 23 Nov 12:49:19 12:54:37 74° 257° (WSW) 12:59:59 435.225
AO-7 23 Nov 13:07:46 13:15:30 46° 59° (ENE) 13:23:16 .
UKube-1 23 Nov 13:10:31 13:14:07 25° 95° (E) 13:17:40 .
BUGSAT 1 23 Nov 13:20:08 13:22:01 13° 271° (W) 13:23:53 437.445
O/OREOS (USA 219) 23 Nov 13:26:39 13:31:07 49° 301° (WNW) 13:35:37 437.305
VELOX 1 23 Nov 13:32:13 13:36:13 33° 293° (WNW) 13:40:11 145.980
Oscar 19 23 Nov 13:45:57 13:49:27 18° 270° (W) 13:52:58 437.125/150
ITAMSAT 1 23 Nov 14:02:30 14:07:33 52° 69° (ENE) 14:12:38 435.822/435.867
NO-84 23 Nov 14:03:16 14:06:40 39° 136° (SE) 14:10:21 435.350 FM
DX 1 23 Nov 14:09:21 14:13:39 54° 289° (WNW) 14:17:54 434.975-435.025
M-CUBED/EXP-1 PRIME 23 Nov 14:12:12 14:15:12 24° 261° (W) 14:18:25 437.505
50 SAT 23 Nov 14:19:11 14:21:50 23° 292° (WNW) 14:24:27 437.505
AO-91 23 Nov 14:23:26 14:24:04 10° 276° (W) 14:24:43 145.960
Gurwin Techsat 1B 23 Nov 14:34:34 14:35:29 10° 275° (W) 14:36:24 435.225
UKube-1 23 Nov 14:46:13 14:50:11 36° 293° (WNW) 14:54:08 .
YUBILEINY 23 Nov 14:51:01 14:58:59 35° 66° (ENE) 15:06:53 435.215
AO-7 23 Nov 15:00:16 15:08:13 49° 259° (W) 15:16:15 .
MOZHAYETS 4 23 Nov 15:02:40 15:07:14 71° 102° (ESE) 15:11:48
BEESAT 23 Nov 15:03:10 15:07:49 52° 100° (E) 15:12:27 436.000
ITUPSAT 1 23 Nov 15:14:36 15:19:21 66° 102° (ESE) 15:24:04 437.325
DOVE 4 23 Nov 15:16:04 15:20:55 44° 69° (ENE) 15:25:55 437.250
CUBESAT XI-V 23 Nov 15:21:19 15:25:23 28° 95° (E) 15:29:26 437.345
XW-2C 23 Nov 15:33:29 15:34:18 11° 60° (ENE) 15:35:07 145.795 - 145.815
LilacSat-2 23 Nov 15:37:47 15:39:31 13° 61° (ENE) 15:41:15 437.200
NO-84 23 Nov 15:40:18 15:43:59 45° 337° (NNW) 15:47:56 435.350 FM
XW-2F 23 Nov 15:41:01 15:42:27 12° 61° (ENE) 15:43:53 145.980 - 146.000
ITAMSAT 1 23 Nov 15:43:07 15:47:17 24° 267° (W) 15:51:31 435.822/435.867
CUTE-I 23 Nov 15:54:09 15:58:21 24° 60° (ENE) 16:02:35 437.470
KAITUO 1B 23 Nov 16:03:17 16:05:35 16° 64° (ENE) 16:07:55 145.475/437.950
HO-68 23 Nov 16:11:17 16:16:48 25° 53° (NE) 16:22:20 435.675
XW-2D 23 Nov 16:23:47 16:27:13 36° 70° (ENE) 16:30:41 145.860 - 145.880
CUTE 1.7 + AOD 2 23 Nov 16:34:09 16:36:26 14° 60° (ENE) 16:38:43 437.475
KKS-1 23 Nov 16:35:42 16:39:49 35° 97° (E) 16:43:52 437.445
XW-2B 23 Nov 16:38:29 16:42:06 51° 73° (ENE) 16:45:46 145.730 - 145.750
MOZHAYETS 4 23 Nov 16:41:08 16:43:52 16° 300° (WNW) 16:46:35
BEESAT 23 Nov 16:41:39 16:45:16 22° 299° (WNW) 16:48:50 436.000
NUDT-PHONESAT 23 Nov 16:41:54 16:45:18 38° 71° (ENE) 16:48:44 437.300
YUBILEINY 23 Nov 16:47:39 16:56:19 62° 269° (W) 17:04:57 435.215
RS-15 23 Nov 16:49:57 17:00:24 35° 105° (ESE) 17:10:46 29.354- 29.394
STARS 23 Nov 16:52:43 16:56:09 22° 93° (E) 16:59:33 437.465
ITUPSAT 1 23 Nov 16:53:30 16:56:41 18° 301° (WNW) 16:59:52 437.325
DOVE 4 23 Nov 16:54:19 16:58:43 29° 267° (W) 17:03:16 437.250
CUBESAT XI-V 23 Nov 16:58:30 17:02:47 36° 292° (WNW) 17:07:04 437.345
SEEDS 23 Nov 16:59:01 17:01:34 16° 62° (ENE) 17:04:09 437.485
XW-2C 23 Nov 17:04:10 17:07:54 77° 259° (W) 17:11:39 145.795 - 145.815
LilacSat-2 23 Nov 17:09:35 17:13:18 61° 259° (W) 17:17:04 437.200
XW-2F 23 Nov 17:12:21 17:16:02 66° 259° (WSW) 17:19:46 145.980 - 146.000
UWE-3 23 Nov 17:13:13 17:15:22 14° 60° (ENE) 17:17:30 435.000/436.395/437.385
NO-84 23 Nov 17:18:38 17:22:04 26° 358° (N) 17:25:38 435.350 FM
XW-2A 23 Nov 17:24:47 17:25:37 11° 62° (ENE) 17:26:27 145.665 - 145.685
CUTE-I 23 Nov 17:32:44 17:38:01 58° 259° (WSW) 17:43:21 437.470
KAITUO 1B 23 Nov 17:35:42 17:39:14 44° 261° (W) 17:42:48 145.475/437.950
AO-73 23 Nov 17:46:41 17:48:51 14° 60° (ENE) 17:50:59 145.935
CUBEBUG 2 23 Nov 17:55:48 18:00:15 57° 73° (ENE) 18:04:34 437.445
HO-68 23 Nov 17:56:32 18:03:46 83° 253° (WSW) 18:11:02 435.675
XW-2D 23 Nov 17:58:52 18:01:31 18° 268° (W) 18:04:11 145.860 - 145.880
Oscar 11 23 Nov 18:00:03 18:02:10 14° 59° (ENE) 18:04:18 .
CUTE 1.7 + AOD 2 23 Nov 18:07:34 18:11:44 68° 259° (WSW) 18:15:58 437.475
KKS-1 23 Nov 18:12:26 18:16:14 28° 295° (WNW) 18:20:01 437.445
XW-2B 23 Nov 18:14:45 18:16:36 13° 270° (W) 18:18:28 145.730 - 145.750
NUDT-PHONESAT 23 Nov 18:16:57 18:19:19 16° 268° (W) 18:21:42 437.300
STARS 23 Nov 18:28:31 18:32:39 41° 291° (WNW) 18:36:46 437.465
AAUSAT CUBESAT 2 23 Nov 18:30:57 18:35:01 60° 73° (ENE) 18:39:08 437.432
ZACube-1 23 Nov 18:31:18 18:35:18 40° 70° (ENE) 18:39:15 437.345
SEEDS 23 Nov 18:32:42 18:36:48 58° 260° (W) 18:40:58 437.485
FO-29 23 Nov 18:36:53 18:40:58 15° 81° (E) 18:44:56 435.910
nSIGHT-1 23 Nov 18:44:55 18:46:14 12° 134° (SE) 18:47:34 .
UWE-3 23 Nov 18:46:52 18:51:17 76° 257° (WSW) 18:55:36 435.000/436.395/437.385
YUBILEINY 23 Nov 18:47:47 18:51:09 13° 291° (WNW) 18:54:31 435.215
XW-2A 23 Nov 18:54:36 18:57:51 56° 259° (W) 19:01:08 145.665 - 145.685
NO-84 23 Nov 18:56:22 19:00:13 36° 18° (NNE) 19:04:11 435.350 FM
STRAND 1 23 Nov 18:58:34 19:03:31 47° 99° (E) 19:08:25 437.568
RS-15 23 Nov 18:59:23 19:11:47 82° 309° (NW) 19:24:04 29.354- 29.394
AO-73 23 Nov 19:20:18 19:24:34 71° 258° (WSW) 19:28:46 145.935
Oscar 11 23 Nov 19:33:26 19:37:43 76° 258° (WSW) 19:42:03 .
CUBEBUG 2 23 Nov 19:34:14 19:37:10 17° 269° (W) 19:40:04 437.445
ISS 23 Nov 19:36:14 19:39:04 27° 141° (SE) 19:41:53 437.550
HO-68 23 Nov 19:48:07 19:52:33 17° 273° (W) 19:57:00 435.675
SO-50 23 Nov 20:07:33 20:11:00 22° 113° (ESE) 20:14:29 436.795
ZACube-1 23 Nov 20:08:29 20:11:45 21° 267° (W) 20:14:59 437.345
AAUSAT CUBESAT 2 23 Nov 20:08:43 20:10:52 14° 271° (W) 20:13:03 437.432
DELFI C3 23 Nov 20:10:20 20:14:14 58° 73° (ENE) 20:18:11 145.870
O/OREOS (USA 219) 23 Nov 20:16:50 20:18:31 12° 42° (NE) 20:20:12 437.305
nSIGHT-1 23 Nov 20:18:46 20:21:58 70° 150° (SSE) 20:25:10 .
FO-29 23 Nov 20:19:33 20:27:27 69° 101° (E) 20:34:48 435.910
UNISAT 6 23 Nov 20:28:49 20:31:02 14° 89° (E) 20:33:15 437.425
EO-88 23 Nov 20:32:20 20:35:49 49° 73° (ENE) 20:39:21 145.990 - 145.960
TIGRISAT 23 Nov 20:32:23 20:34:35 14° 89° (E) 20:36:45 435.000
NO-84 23 Nov 20:33:39 20:37:51 70° 218° (SW) 20:42:06 435.350 FM
STRAND 1 23 Nov 20:38:14 20:42:27 27° 298° (WNW) 20:46:39 437.568
Max Valier Satellite 23 Nov 20:40:34 20:44:13 89° 283° (WNW) 20:47:53 145.860
LO-87 23 Nov 20:49:50 20:51:16 12° 62° (ENE) 20:52:40 145.935 - 145.965
ISS 23 Nov 21:12:06 21:15:22 63° 340° (NNW) 21:18:38 437.550
ESTCUBE 1 23 Nov 21:12:42 21:16:02 21° 62° (ENE) 21:19:23 437.505/2401.250
RS-15 23 Nov 21:14:59 21:26:20 40° 338° (NNW) 21:37:25 29.354- 29.394
SO-50 23 Nov 21:46:45 21:51:07 53° 313° (NW) 21:55:34 436.795
DELFI C3 23 Nov 21:47:24 21:49:21 13° 271° (W) 21:51:20 145.870
O/OREOS (USA 219) 23 Nov 21:54:18 21:58:52 67° 63° (ENE) 22:03:22 437.305
nSIGHT-1 23 Nov 21:55:18 21:58:21 38° 350° (N) 22:01:24 .
SPROUT 23 Nov 21:56:13 21:58:36 15° 60° (ENE) 22:01:00 437.525
UNISAT 6 23 Nov 22:03:57 22:08:11 62° 288° (WNW) 22:12:23 437.425
FO-29 23 Nov 22:05:10 22:11:51 32° 302° (WNW) 22:18:16 435.910
TIGRISAT 23 Nov 22:07:29 22:11:43 63° 287° (WNW) 22:15:54 435.000
EO-88 23 Nov 22:08:04 22:09:45 13° 270° (W) 22:11:28 145.990 - 145.960
PRISM 23 Nov 22:09:18 22:13:23 51° 100° (E) 22:17:25 437.425
NO-84 23 Nov 22:12:31 22:14:36 13° 235° (SW) 22:16:40 435.350 FM
LO-87 23 Nov 22:20:37 22:24:11 60° 259° (W) 22:27:46 145.935 - 145.965
AIST 2D 23 Nov 22:39:47 22:43:06 37° 98° (E) 22:46:23 435.315
DUCHIFAT 1 23 Nov 22:42:10 22:43:23 11° 88° (E) 22:44:35 145.980
PCSat 23 Nov 22:43:58 22:48:36 30° 111° (ESE) 22:53:17 145.827
ESTCUBE 1 23 Nov 22:48:10 22:52:30 49° 261° (W) 22:56:53 437.505/2401.250
ISS 23 Nov 22:49:09 22:52:12 35° 359° (N) 22:55:14 437.550
EO-79 23 Nov 22:51:46 22:54:44 19° 92° (E) 22:57:42 145.935-145.965
NANOSAT C BR1 23 Nov 22:53:08 22:55:55 17° 91° (E) 22:58:40 145.865
VELOX 1 23 Nov 22:55:37 22:59:41 37° 68° (ENE) 23:03:48 145.980
POLYITAN 1 23 Nov 23:07:30 23:11:04 26° 95° (E) 23:14:36 437.675
50 SAT 23 Nov 23:18:10 23:19:28 12° 63° (ENE) 23:20:46 437.505
SPROUT 23 Nov 23:29:42 23:33:59 68° 259° (WSW) 23:38:16 437.525
SO-50 23 Nov 23:30:05 23:32:36 14° 335° (NNW) 23:35:08 436.795
QB50P2 23 Nov 23:30:42 23:34:50 51° 100° (E) 23:38:55 145.880/145.840
nSIGHT-1 23 Nov 23:31:58 23:35:02 39° 10° (N) 23:38:05 .
RS-15 23 Nov 23:32:07 23:42:59 35° 12° (NNE) 23:53:24 29.354- 29.394
DX 1 23 Nov 23:32:19 23:35:46 23° 63° (ENE) 23:39:13 434.975-435.025
O/OREOS (USA 219) 23 Nov 23:35:09 23:37:43 15° 261° (W) 23:40:14 437.305
PRISM 23 Nov 23:45:27 23:48:16 18° 298° (WNW) 23:51:04 437.425
UKube-1 24 Nov 00:07:29 00:11:19 32° 66° (ENE) 00:15:09 .
AIST 2D 24 Nov 00:13:39 00:16:00 17° 295° (WNW) 00:18:20 435.315
Oscar 19 24 Nov 00:14:00 00:17:27 18° 90° (E) 00:20:54 437.125/150
DUCHIFAT 1 24 Nov 00:15:23 00:19:33 76° 286° (WNW) 00:23:42 145.980
ISS 24 Nov 00:25:48 00:29:03 58° 19° (NNE) 00:32:17 437.550
PCSat 24 Nov 00:26:32 00:31:47 50° 310° (NW) 00:37:05 145.827
EO-79 24 Nov 00:26:44 00:30:44 45° 289° (WNW) 00:34:43 145.935-145.965
NANOSAT C BR1 24 Nov 00:27:51 00:31:54 49° 289° (WNW) 00:35:55 145.865
AO-91 24 Nov 00:30:03 00:33:28 21° 90° (E) 00:36:35 145.960
VELOX 1 24 Nov 00:32:31 00:36:12 25° 266° (W) 00:39:57 145.980
MOZHAYETS 4 24 Nov 00:33:04 00:35:12 13° 58° (ENE) 00:37:21
BEESAT 24 Nov 00:37:46 00:39:56 13° 56° (NE) 00:42:06 436.000
BEESAT 3 24 Nov 00:42:35 00:44:40 14° 111° (ESE) 00:46:46 437.485
POLYITAN 1 24 Nov 00:43:08 00:46:51 31° 293° (WNW) 00:50:33 437.675
50 SAT 24 Nov 00:48:01 00:51:09 47° 260° (W) 00:54:18 437.505
ITUPSAT 1 24 Nov 00:48:44 00:51:36 16° 58° (ENE) 00:54:28 437.325
BUGSAT 1 24 Nov 00:55:52 00:59:55 75° 103° (ESE) 01:03:55 437.445
Gurwin Techsat 1B 24 Nov 01:02:36 01:07:27 35° 96° (E) 01:12:17 435.225
QB50P2 24 Nov 01:07:24 01:10:15 18° 298° (WNW) 01:13:05 145.880/145.840
DX 1 24 Nov 01:07:33 01:11:42 42° 261° (W) 01:15:54 434.975-435.025
nSIGHT-1 24 Nov 01:08:13 01:11:24 65° 210° (SSW) 01:14:34 .
UKube-1 24 Nov 01:43:34 01:47:19 28° 264° (W) 01:51:06 .
RS-15 24 Nov 01:46:20 01:58:19 64° 43° (NE) 02:09:36 29.354- 29.394
M-CUBED/EXP-1 PRIME 24 Nov 01:46:44 01:49:50 18° 96° (E) 01:52:57 437.505
Oscar 19 24 Nov 01:52:07 01:57:15 68° 288° (WNW) 02:02:23 437.125/150
BEESAT 2 24 Nov 02:00:03 02:03:23 25° 115° (ESE) 02:06:44 435.950
ISS 24 Nov 02:02:29 02:05:23 30° 218° (SW) 02:08:17 437.550
AO-91 24 Nov 02:05:51 02:10:12 42° 291° (WNW) 02:14:06 145.960
MOZHAYETS 4 24 Nov 02:07:08 02:11:42 86° 256° (WSW) 02:16:17
BEESAT 24 Nov 02:12:11 02:16:58 85° 72° (ENE) 02:21:46 436.000
PCSat 24 Nov 02:13:30 02:16:31 15° 333° (NNW) 02:19:33 145.827
ITAMSAT 1 24 Nov 02:13:51 02:16:27 14° 88° (E) 02:19:02 435.822/435.867
BEESAT 3 24 Nov 02:17:42 02:21:41 70° 309° (NW) 02:25:42 437.485
ITUPSAT 1 24 Nov 02:24:03 02:28:50 77° 256° (WSW) 02:33:38 437.325
CUBESAT XI-V 24 Nov 02:27:15 02:31:31 38° 68° (ENE) 02:35:48 437.345
BUGSAT 1 24 Nov 02:33:01 02:34:41 12° 301° (WNW) 02:36:20 437.445
Gurwin Techsat 1B 24 Nov 02:42:33 02:47:25 37° 294° (WNW) 02:52:15 435.225
nSIGHT-1 24 Nov 02:46:08 02:47:05 11° 227° (SW) 02:48:01 .
SO-50 24 Nov 02:55:05 02:57:38 14° 25° (NNE) 03:00:11 436.795
AO-7 24 Nov 02:57:48 03:05:51 49° 101° (E) 03:13:52 .
AO-85 24 Nov 03:03:24 03:07:02 39° 119° (ESE) 03:10:51 145.980
M-CUBED/EXP-1 PRIME 24 Nov 03:20:00 03:24:31 63° 292° (WNW) 03:29:06 437.505
Oscar 19 24 Nov 03:33:53 03:35:38 12° 307° (NW) 03:37:23 437.125/150
KKS-1 24 Nov 03:36:13 03:40:30 47° 70° (ENE) 03:44:49 437.445
BEESAT 2 24 Nov 03:37:07 03:40:56 40° 314° (NW) 03:44:48 435.950
MOZHAYETS 4 24 Nov 03:49:26 03:49:33 10° 274° (W) 03:49:39
ITAMSAT 1 24 Nov 03:51:22 03:56:37 86° 286° (WNW) 04:01:49 435.822/435.867
STARS 24 Nov 03:51:47 03:55:38 29° 66° (ENE) 03:59:29 437.465
BEESAT 24 Nov 03:53:26 03:55:22 12° 272° (W) 03:57:19 436.000
YUBILEINY 24 Nov 03:56:29 04:04:05 35° 83° (E) 04:11:44 435.215
BEESAT 3 24 Nov 03:57:42 03:59:57 14° 329° (NNW) 04:02:12 437.485
RS-15 24 Nov 03:59:26 04:10:26 48° 249° (WSW) 04:20:53 29.354- 29.394
CUBESAT XI-V 24 Nov 04:05:09 04:08:59 26° 266° (W) 04:12:51 437.345
SO-50 24 Nov 04:34:37 04:39:08 51° 47° (NE) 04:43:43 436.795
STRAND 1 24 Nov 04:41:06 04:43:58 15° 56° (NE) 04:46:50 437.568
LilacSat-2 24 Nov 04:41:22 04:42:47 12° 89° (E) 04:44:14 437.200
XW-2F 24 Nov 04:43:38 04:44:16 10° 88° (E) 04:44:55 145.980 - 146.000
AO-85 24 Nov 04:44:06 04:47:32 28° 320° (NW) 04:51:10 145.980
DOVE 4 24 Nov 04:49:16 04:54:29 73° 101° (ESE) 04:59:22 437.250
AO-7 24 Nov 04:50:46 04:58:35 46° 301° (WNW) 05:06:24 .
FO-29 24 Nov 04:55:06 04:57:29 12° 41° (NE) 04:59:55 435.910
M-CUBED/EXP-1 PRIME 24 Nov 04:57:00 04:58:03 11° 310° (NW) 04:59:06 437.505
KAITUO 1B 24 Nov 05:04:30 05:06:36 14° 90° (E) 05:08:43 145.475/437.950
KKS-1 24 Nov 05:13:58 05:17:18 20° 267° (W) 05:20:39 437.445
BEESAT 2 24 Nov 05:18:46 05:19:44 11° 336° (NNW) 05:20:43 435.950
HO-68 24 Nov 05:22:41 05:26:53 16° 86° (E) 05:31:03 435.675
XW-2D 24 Nov 05:26:50 05:30:23 35° 97° (E) 05:33:54 145.860 - 145.880
STARS 24 Nov 05:27:55 05:31:53 32° 263° (W) 05:35:53 437.465
ITAMSAT 1 24 Nov 05:32:28 05:35:18 15° 305° (NW) 05:38:09 435.822/435.867
XW-2B 24 Nov 05:41:40 05:45:24 50° 100° (E) 05:49:07 145.730 - 145.750
NUDT-PHONESAT 24 Nov 05:42:17 05:45:44 35° 97° (E) 05:49:10 437.300
PCSat 24 Nov 05:45:30 05:48:31 15° 27° (NNE) 05:51:30 145.827
CUTE-I 24 Nov 05:46:34 05:51:44 45° 98° (E) 05:56:50 437.470
CUTE 1.7 + AOD 2 24 Nov 05:50:05 05:52:57 17° 91° (E) 05:55:48 437.475
YUBILEINY 24 Nov 05:51:48 06:00:25 60° 285° (WNW) 06:09:10 435.215
XW-2C 24 Nov 06:07:26 06:11:16 79° 284° (WNW) 06:15:06 145.795 - 145.815
LilacSat-2 24 Nov 06:13:39 06:17:27 62° 286° (WNW) 06:21:16 437.200
SEEDS 24 Nov 06:13:55 06:16:58 19° 91° (E) 06:20:00 437.485
XW-2F 24 Nov 06:15:01 06:18:49 69° 285° (WNW) 06:22:36 145.980 - 146.000
SO-50 24 Nov 06:15:33 06:19:21 25° 245° (WSW) 06:23:11 436.795
STRAND 1 24 Nov 06:17:15 06:22:25 89° 81° (E) 06:27:36 437.568
DOVE 4 24 Nov 06:28:03 06:31:31 18° 301° (WNW) 06:34:52 437.250
FO-29 24 Nov 06:33:59 06:40:30 44° 63° (ENE) 06:47:39 435.910
UWE-3 24 Nov 06:34:16 06:36:55 16° 91° (E) 06:39:33 435.000/436.395/437.385
KAITUO 1B 24 Nov 06:37:12 06:40:51 48° 288° (WNW) 06:44:30 145.475/437.950
AO-7 24 Nov 06:45:28 06:49:19 14° 325° (NW) 06:53:11 .
XW-2D 24 Nov 07:01:28 07:04:20 20° 294° (WNW) 07:07:12 145.860 - 145.880
AO-73 24 Nov 07:05:51 07:08:34 17° 91° (E) 07:11:18 145.935
HO-68 24 Nov 07:08:29 07:15:44 80° 106° (ESE) 07:22:54 435.675
NUDT-PHONESAT 24 Nov 07:16:38 07:19:21 20° 295° (WNW) 07:22:05 437.300
XW-2B 24 Nov 07:16:54 07:19:11 15° 297° (WNW) 07:21:29 145.730 - 145.750
Oscar 11 24 Nov 07:18:31 07:21:17 16° 90° (E) 07:24:02 .
CUBEBUG 2 24 Nov 07:19:51 07:24:03 85° 106° (ESE) 07:28:11 437.445
CUTE 1.7 + AOD 2 24 Nov 07:24:55 07:29:04 51° 288° (WNW) 07:33:13 437.475
CUTE-I 24 Nov 07:26:59 07:31:35 30° 297° (WNW) 07:36:09 437.470
PCSat 24 Nov 07:27:58 07:33:15 49° 50° (NE) 07:38:30 145.827
UNISAT 6 24 Nov 07:30:01 07:33:16 20° 63° (ENE) 07:36:29 437.425
TIGRISAT 24 Nov 07:33:26 07:36:40 20° 63° (ENE) 07:39:51 435.000
AAUSAT CUBESAT 2 24 Nov 07:44:59 07:49:12 76° 103° (ESE) 07:53:23 437.432
XW-2A 24 Nov 07:45:21 07:48:44 86° 283° (WNW) 07:52:07 145.665 - 145.685
SEEDS 24 Nov 07:48:47 07:52:52 45° 289° (WNW) 07:56:56 437.485
ZACube-1 24 Nov 07:52:05 07:56:11 57° 101° (E) 08:00:19 437.345
YUBILEINY 24 Nov 07:54:53 07:59:31 15° 310° (NW) 08:04:11 435.215
STRAND 1 24 Nov 07:59:58 08:02:18 13° 273° (W) 08:04:39 437.568
UWE-3 24 Nov 08:09:39 08:13:41 50° 288° (WNW) 08:17:41 435.000/436.395/437.385
FO-29 24 Nov 08:18:58 08:25:29 45° 265° (W) 08:32:44 435.910
BEESAT 2 24 Nov 08:37:59 08:39:10 11° 25° (NNE) 08:40:22 435.950
AO-73 24 Nov 08:41:05 08:45:05 49° 288° (WNW) 08:49:07 145.935
Oscar 11 24 Nov 08:53:29 08:57:44 55° 288° (WNW) 09:01:59 .
BEESAT 3 24 Nov 08:54:26 08:57:48 26° 40° (NE) 09:01:08 437.485
HO-68 24 Nov 08:57:08 09:02:44 25° 306° (NW) 09:08:20 435.675
CUBEBUG 2 24 Nov 08:58:40 09:00:00 11° 302° (WNW) 09:01:21 437.445
PRISM 24 Nov 09:00:52 09:04:55 54° 71° (ENE) 09:09:00 437.425
UNISAT 6 24 Nov 09:05:14 09:09:39 51° 260° (W) 09:14:00 437.425
TIGRISAT 24 Nov 09:08:36 09:13:01 52° 260° (W) 09:17:22 435.000
PCSat 24 Nov 09:11:44 09:16:25 30° 249° (WSW) 09:21:05 145.827
AIST 2D 24 Nov 09:17:01 09:19:43 22° 67° (ENE) 09:22:27 435.315
DELFI C3 24 Nov 09:18:29 09:22:30 63° 102° (ESE) 09:26:26 145.870
AAUSAT CUBESAT 2 24 Nov 09:22:07 09:24:04 13° 300° (WNW) 09:26:00 437.432
ZACube-1 24 Nov 09:29:31 09:32:03 16° 298° (WNW) 09:34:36 437.345
FALCONSAT 3 24 Nov 09:29:38 09:31:27 13° 175° (S) 09:33:16 435.103
EO-88 24 Nov 09:31:08 09:34:38 42° 99° (E) 09:38:07 145.990 - 145.960
DUCHIFAT 1 24 Nov 09:36:24 09:38:33 14° 60° (ENE) 09:40:41 145.980
Max Valier Satellite 24 Nov 09:40:50 09:44:32 82° 102° (ESE) 09:48:13 145.860
EO-79 24 Nov 09:46:52 09:50:06 22° 64° (ENE) 09:53:20 145.935-145.965
NANOSAT C BR1 24 Nov 09:47:55 09:50:59 20° 63° (ENE) 09:54:04 145.865
AO-85 24 Nov 09:50:52 09:54:13 20° 34° (NE) 09:57:44 145.980
POLYITAN 1 24 Nov 10:02:38 10:06:19 30° 67° (ENE) 10:10:01 437.675
BEESAT 2 24 Nov 10:14:03 10:17:56 42° 46° (NE) 10:21:46 435.950
QB50P2 24 Nov 10:25:41 10:29:51 56° 72° (ENE) 10:34:00 145.880/145.840
BEESAT 3 24 Nov 10:31:44 10:35:29 42° 240° (WSW) 10:39:11 437.485
ESTCUBE 1 24 Nov 10:37:32 10:41:27 28° 95° (E) 10:45:20 437.505/2401.250
PRISM 24 Nov 10:38:01 10:40:31 15° 269° (W) 10:43:01 437.425
AIST 2D 24 Nov 10:49:49 10:52:46 26° 265° (W) 10:55:46 435.315
Gurwin Techsat 1B 24 Nov 10:50:25 10:52:46 13° 53° (NE) 10:55:08 435.225
DELFI C3 24 Nov 10:54:39 10:56:44 14° 299° (WNW) 10:58:49 145.870
EO-88 24 Nov 11:05:37 11:07:57 16° 296° (WNW) 11:10:17 145.990 - 145.960
FALCONSAT 3 24 Nov 11:08:21 11:09:42 12° 191° (S) 11:11:03 435.103
